Regional Weather Roundup
Issued by NWS Charleston, SC

Current Version | Previous Version | Graphics & Text | Print | Product List | Glossary On
Versions: 1 2 3 4 5 6 7 8 9 10 11 12 13 14 15 16 17 18 19 20 21 22 23 24 25 26 27 28 29 30 31 32 33 34 35 36 37 38 39 40 41 42 43 44 45 46 47 48 49 50
000
ASUS42 KCHS 211025
RWRCHS

REGIONAL WEATHER ROUNDUP
NATIONAL WEATHER SERVICE CHARLESTON SC
600 AM EDT MON APR 21 2014

NOTE: "FAIR" INDICATES FEW OR NO CLOUDS BELOW 12,000 FEET WITH NO
SIGNIFICANT WEATHER AND/OR OBSTRUCTIONS TO VISIBILITY.

NOT ALL STATIONS ARE QUALITY CONTROLLED BY THE NATIONAL
WEATHER SERVICE. USE DATA WITH CAUTION...ESPECIALLY
DEWPOINT OBSERVATIONS.

SCZ027-030-031-034>040-042>050-211100-
...SOUTH CAROLINA...

CITY           SKY/WX    TMP DP  RH WIND       PRES   REMARKS
N CHARLESTON   CLEAR     56  44  64 N10       30.07R
WATERFRONT PRK   N/A     57 N/A N/A N14         N/A
FORT JOHNSON     N/A     57  48  72 N16       30.10S
MOUNT PLEASANT FAIR     N/A N/A N/A N7        30.06R
JOHNS ISLAND   SUNNY     55  48  76 N9        30.06S
PINOPOLIS        N/A     57  46  67 NE16      29.99S
MONCKS CORNER  FAIR      57  48  72 N6        30.08R
SUMMERVILLE    NOT AVBL
BEAUFORT MCAS  CLEAR     57  48  72 NE7       30.07S
BEAUFORT ARPT  FAIR      55  50  82 N8        30.06F
HILTON HEAD IS NOT AVBL
GEORGETOWN     NOT AVBL
WALTERBORO     SUNNY     52  52 100 N5        30.09S
ORANGEBURG     CLEAR     53  43  68 N6        30.10F
BARNWELL       FAIR      52  45  76 N7        30.11R
AIKEN          FAIR      50  45  81 N3        30.15S
MANNING        FAIR      54  32  43 N5        30.10R
KINGSTREE      NOT AVBL
COLUMBIA       CLEAR     52  42  69 N6        30.11F
SUMTER         CLEAR     50  42  73 N9        30.09F
FLORENCE       CLEAR     52  39  61 N12       30.10S
MYRTLE BEACH   CLEAR     52  41  66 N14       30.06S
N MYRTLE BEACH PTCLDY    51  42  71 N9G20     30.05R

$$

GAZ063-065-086>088-099>101-113>116-118-119-134-136>141-150-211100-
...GEORGIA...

CITY           SKY/WX    TMP DP  RH WIND       PRES   REMARKS
SAVANNAH ARPT  CLEAR     54  49  83 N3        30.08S
HUNTER AAF     CLEAR     56  51  85 W1        30.05F
FORT STEWART   CLEAR     52  51  95 CALM      30.07S
STATESBORO     NOT AVBL
SYLVANIA       SUNNY     55  47  76 N5        30.11R
CLAXTON        FAIR     N/A N/A N/A CALM      30.10R
THOMSON        CLEAR     39  39 100 CALM      30.19S
AUGUSTA-BUSH   CLEAR     47  42  83 CALM      30.12S
AUGUSTA-DANIEL CLEAR     51  42  71 NW8       30.13S
SWAINSBORO     FAIR      46  46 100 NW3       30.13R
VIDALIA        CLEAR     54  46  76 N6        30.12R
ALMA           CLEAR     54  47  77 NW6       30.10R
WAYCROSS       NOT AVBL
JESUP          FAIR      54  50  87 CALM      30.08
BRUNSWICK      CLEAR     54  52  94 CALM      30.08S
SAINT SIMONS   PTCLDY    55  52  89 N3        30.07S

$$

SCZ027-028-034-036>038-045-046-048>050-GAZ119-141-211100-
...LAKE AND SUPPLEMENTAL COASTAL OBSERVATIONS...

STATION/POSITION TIME  TEMP    WIND        PRES    WAVE   SWELL
                       AIR SEA DIR/SP/G            HT/PER HT/PER/DIR
                 (UTC) (F)     (DEG/KT/KT) (MB)    (FT/S) (FT/S/D)
UPR LAKE MARION  NOT AVBL
WINYAH BAY       1000   53     350/  8     1017.0S
LAKE MURRAY      0900   51     350/  3/  6 1019.6F
ACE BASIN NERRS  1000   56     360/  2     1018.0S
FORT PULASKI     1000   59 58   10/  6/  9 1018.3F
SAPELO ISLAND    1000   56     330/  3     1018.0S

$$

ANZ835-935-AMZ111-154-330-350-352-354-374-450-454-472-211100-
...C-MAN AND BUOY OBSERVATIONS...

STATION/POSITION TIME  TEMP    WIND        PRES    WAVE   SWELL
                       AIR SEA DIR/SP/G            HT/PER HT/PER/DIR
                 (UTC) (F)     (DEG/KT/KT) (MB)    (FT/S) (FT/S/D)
FOLLY BEACH CMAN 1000   56     350/ 11/ 14 1018.1R
BUOY 41004       NOT AVBL
BUOY 41008       1000   62 63   20/ 16/ 17 1017.4R   5/ 6   3/ 80/12
5E ST. MARYS GA  1000      63                N/A     5/11   2/ 90/11
FRYING PAN BUOY  1000   57 67   10/ 27/ 31 1014.7R   9/ 7   3/ 90/11
BUOY 41025       1000   57 75   10/ 27/ 33 1012.9R  13/11   8/ 50/11
CAPE LOOKOUT NC  1000   52     360/ 21/ 28 1015.0S
BUOY 41002       NOT AVBL
BUOY 41010       1000   71 74  340/ 17/ 21 1013.1R   8/11   7/ 10/11
BUOY 41012       NOT AVBL
ST AUGUSTINE FL  1000   61     310/  6/  7 1018.0F
CAPERS NEARSHORE NOT AVBL
FRIPP NEARSHORE  0900   60      10/ 12/ 14   N/A


$$



USA.gov is the U.S. government's official web portal to all federal, state and local government web resources and services.